Zurück zum Katalog

STARLINK-35689

AktivKommunikationVLEO
NORAD 66494·PAYLOAD·🇺🇸 United States

Gestartet Nov 15, 2025 von Cape Canaveral Space Force Station

Loading…

Nächste Überflüge (nächste 24 Stunden)

TLE

AktuellSource: CelesTrak SupGP

Epoche: Sep 15, 2026, 03:32 UTC

1 66494C 25263K   26258.14770833  .00036582  00000+0  13247-2 0  2583
2 66494  43.0013   1.1227 0001675 258.4297 318.0179 15.27567759    15

Verfolge STARLINK-35689 in Echtzeit mit AllMySat

Download on the App Store